User: anonymous   Login
Location: Unspecified
(0.0000°N, 0.0000°E)
Time: 15:18:07
(UTC+00:00)
Language:

GALILEO 12 (269) - Orbit

View from above orbital plane
View from above orbital plane
View from above satellite
View from above satellite

Ground track
Ground track

The orbit data is extracted from the following two-line orbital elements,

1 41174U 15079A   18231.02900643  .00000002  00000-0  00000+0 0  9999
2 41174  54.9266 179.8974 0005958 298.5872  61.3203  1.70473192 16617
Epoch (UTC): 19 August 2018 00:41:46
Eccentricity: 0.0005958
inclination: 54.9266°
perigee height: 23204 km
apogee height: 23239 km
right ascension of ascending node: 179.8974°
argument of perigee: 298.5872°
revolutions per day: 1.70473192
mean anomaly at epoch: 61.3203°
orbit number at epoch: 1661

The dashed part of the orbit path shows where the satellite is in the earth's shadow,  

DLR